Japanese version Home page |
Updated on May 8, 2004 |
Profile
|
Orbital ElementsT 2003 Mar. 19.3321 TT MPC q 4.349795 (2000.0) P Q n 0.0248686 Peri. 315.9683 -0.3483360 -0.9094799 a 11.624332 Node 151.9549 +0.9365014 -0.3480777 e 0.625803 Incl. 28.8625 +0.0403371 +0.2273502 P 39.6 >From 76 observations 2004 Jan. 23-Apr. 11.
|
Finding Charts
|
Magnitudes Graphm1 = 9.6 + 5 log d + 10.0 log r
|
The orbital elements are published on M.P.E.C. 2004-G36.
|